GFSSGP_sfc_temp_000.txt.gz
Temp
79 89 92 88 75 75 69 69 76 73 75 79 81 80 77 78 72 69 84 81 76 78 81 83 73 74 74 74 75 75 76 76 76 78 77 76 77 76 76 76 76 77 77 77 78 78 77 77 75
88 86 89 87 71 65 68 73 71 76 79 80 79 79 78 71 81 79 82 81 75 78 84 84 72 73 74 74 74 75 76 75 75 76 76 75 74 72 67 74 75 76 77 77 77 78 77 76 75
84 85 84 80 74 66 70 72 74 78 79 80 77 81 77 72 79 80 81 81 81 81 83 81 72 72 73 74 74 75 75 75 75 75 76 75 77 73 71 73 75 76 77 77 77 77 76 74 72
87 87 84 73 65 68 69 73 74 76 78 81 81 72 75 72 71 81 83 82 80 81 83 75 71 72 73 74 74 75 75 74 75 75 76 76 76 77 77 75 75 76 76 77 76 75 74 73 72
91 86 74 68 66 70 74 75 75 76 76 77 78 72 70 71 75 83 83 82 80 80 82 82 70 72 73 74 74 74 74 74 74 74 74 75 75 75 74 74 74 74 75 76 76 74 73 72 72
82 82 69 64 66 71 76 77 77 76 76 75 77 75 72 77 75 76 82 81 84 83 82 83 72 70 71 72 73 72 73 73 73 73 73 73 73 73 73 73 73 73 74 74 73 72 71 71 70
78 76 67 67 66 69 72 78 73 74 75 71 75 72 74 73 68 68 79 81 81 81 81 83 83 77 70 69 69 69 70 71 71 71 71 71 71 71 72 72 73 74 73 73 72 71 71 71 70
84 79 68 68 66 65 74 76 75 74 70 75 75 73 71 71 67 73 74 77 80 80 81 81 83 82 81 81 67 68 68 68 69 70 69 67 68 70 70 69 71 71 72 72 71 70 70 70 70
80 73 66 65 67 68 76 74 75 75 74 71 72 73 73 73 73 76 75 77 82 79 78 77 80 79 79 81 78 74 70 69 68 70 67 70 77 72 71 64 65 67 69 69 70 69 68 67 67
81 71 66 70 72 72 74 74 73 73 72 70 70 72 74 76 76 75 76 76 75 74 76 77 75 76 79 82 80 80 79 79 79 79 76 78 72 70 66 63 63 63 63 62 67 67 67 67 79
75 68 70 72 73 75 74 73 73 73 71 73 72 72 74 75 76 75 75 75 75 74 76 74 73 73 77 78 83 81 72 75 77 75 75 72 67 63 68 61 61 61 61 62 60 67 70 71 74
69 71 71 72 72 72 71 73 71 72 72 74 76 76 75 74 74 74 74 74 74 74 74 72 72 72 73 79 79 78 78 76 75 74 73 72 70 70 65 63 62 59 61 61 61 62 62 66 72
70 69 71 72 71 71 70 69 69 71 72 72 73 72 73 74 74 73 74 73 74 72 73 71 72 72 73 74 75 74 74 74 73 73 73 75 73 69 69 65 64 62 62 61 61 65 66 63 64
70 70 70 72 71 71 69 71 70 72 73 71 70 73 74 73 73 72 72 72 72 73 72 71 72 72 73 73 72 72 72 73 73 72 71 71 72 69 69 63 63 63 63 64 64 63 65 64 65
70 66 68 69 70 69 72 68 68 74 73 71 71 72 73 73 73 72 74 73 73 73 72 72 72 72 72 72 73 74 73 73 72 71 70 70 71 69 67 68 65 65 64 63 63 62 63 65 66
66 67 63 68 69 69 68 64 71 76 72 72 73 73 72 73 73 75 73 73 73 73 72 72 73 72 72 72 74 74 74 73 72 72 71 69 68 69 68 68 66 65 65 62 59 57 58 59 60
66 60 59 63 69 67 65 64 73 75 72 71 75 75 74 73 73 75 73 73 73 72 72 71 71 71 71 71 72 71 70 73 73 72 72 69 69 68 69 68 67 66 67 65 63 61 63 62 60
56 57 59 58 67 66 65 66 74 77 75 72 73 75 76 73 74 74 72 72 72 71 71 71 71 69 69 71 70 71 71 72 73 72 72 70 70 69 70 69 67 68 67 65 64 63 65 65 62
60 58 60 65 65 60 63 65 70 75 74 73 72 72 73 74 76 74 71 71 70 70 70 70 69 69 70 69 69 70 69 70 71 73 70 69 71 69 69 70 68 67 66 64 63 63 62 63 63
61 59 60 63 65 61 62 62 71 71 70 69 69 71 71 72 72 70 70 69 68 69 70 70 70 70 70 72 72 72 70 71 73 72 68 68 68 68 69 67 67 66 66 64 63 62 61 62 63
61 58 58 56 61 66 60 67 67 69 70 68 70 70 70 68 70 69 68 68 68 67 69 70 71 70 70 70 70 69 68 68 68 69 70 69 67 67 66 66 66 65 65 64 63 63 61 59 62
55 59 58 57 55 54 59 54 64 66 68 69 69 70 71 70 69 68 69 68 67 68 69 69 70 70 70 69 68 66 67 66 69 67 69 68 67 66 66 65 65 64 64 63 63 65 62 61 58
56 60 58 55 53 53 54 52 63 65 64 66 69 69 70 70 68 68 69 69 70 68 68 68 69 68 69 67 66 65 64 66 67 66 63 64 65 65 65 64 63 63 63 62 61 60 60 61 59
61 59 59 54 53 44 52 52 60 65 62 65 69 69 69 70 69 69 68 68 68 68 66 66 66 67 67 65 64 62 62 63 62 63 61 63 63 64 63 63 61 61 60 60 60 60 59 59 59
61 56 47 45 45 46 53 50 58 65 66 65 65 66 68 69 69 69 69 67 67 67 65 65 65 64 66 63 62 61 61 60 59 59 60 58 58 59 60 59 58 59 58 58 58 58 57 58 58
53 53 44 31 40 45 56 46 61 67 68 68 66 67 67 69 70 69 68 68 67 66 66 65 65 63 65 61 60 59 59 59 60 56 58 57 55 54 56 55 55 56 56 56 56 56 57 57 57
52 51 54 44 38 37 50 56 63 68 65 65 67 68 68 68 68 69 69 66 66 66 65 64 63 63 61 59 57 56 56 55 55 55 55 56 55 56 55 54 53 53 53 53 53 53 54 55 55
55 57 45 47 32 32 48 50 54 60 63 65 65 66 65 67 67 68 69 68 67 67 66 63 61 61 59 57 55 55 54 54 55 54 53 53 53 53 53 52 52 52 51 52 51 51 53 52 54
53 51 50 49 45 36 35 46 63 61 64 63 65 65 65 67 67 67 68 69 68 65 61 58 58 59 56 55 53 52 54 54 53 53 53 52 52 52 50 50 50 49 49 50 49 49 49 49 50
55 51 50 41 41 43 37 40 64 65 65 62 63 66 67 68 68 68 67 66 64 60 59 56 57 56 55 54 52 52 53 52 51 52 51 51 50 50 49 49 48 48 48 48 47 46 47 47 47

GFSSGP_sfc_temp_003.txt.gz
Temp
78 94 98 92 76 78 73 74 82 77 80 85 87 85 79 81 75 64 85 82 78 82 87 85 73 74 74 75 76 76 76 76 76 78 78 77 76 72 73 74 73 72 74 78 79 78 78 77 76
92 93 93 87 73 69 72 78 76 80 83 85 85 85 83 74 85 83 86 85 81 79 85 87 72 74 74 74 75 76 76 76 75 76 76 77 73 71 70 71 72 73 74 72 78 78 77 76 74
88 93 84 80 75 69 67 77 79 81 84 84 81 87 83 76 83 83 87 86 85 83 84 81 73 73 74 74 75 76 76 76 76 75 77 77 75 72 72 71 72 73 74 76 77 78 76 74 73
91 90 88 74 70 73 74 77 79 81 83 85 85 76 78 80 81 87 89 88 82 80 82 75 72 73 74 75 75 75 75 75 76 75 75 76 77 71 72 71 71 72 74 74 77 76 73 71 72
93 89 78 73 70 74 79 80 82 80 81 81 84 77 73 78 81 83 83 84 84 82 80 79 71 72 73 74 75 75 75 74 75 75 74 75 75 74 74 74 74 74 69 69 74 74 70 70 72
84 87 73 68 69 76 79 82 82 80 81 80 82 78 76 80 79 80 85 87 89 87 83 81 72 71 71 71 71 72 73 74 74 74 74 74 74 73 73 73 73 73 72 72 73 72 71 71 71
82 80 73 71 70 71 75 83 79 79 79 77 83 76 80 80 80 80 86 87 86 87 86 87 87 78 70 70 69 69 70 71 72 72 72 73 72 72 72 68 69 69 72 71 72 71 71 71 70
87 86 72 73 70 69 77 80 82 80 77 83 85 79 76 81 80 82 84 85 86 86 88 87 87 87 85 83 69 69 69 69 70 70 69 69 71 71 66 68 67 67 67 67 66 69 70 70 69
90 77 70 70 71 73 80 78 82 83 80 80 82 83 83 83 83 82 83 85 86 85 84 83 85 83 83 85 80 72 71 71 70 70 68 69 79 74 75 66 66 66 65 65 64 63 66 67 67
83 76 70 76 77 77 79 79 78 78 78 78 78 80 82 82 83 82 83 82 82 81 82 83 79 80 81 86 83 83 81 81 81 81 78 81 77 76 75 69 65 65 64 64 63 61 62 65 74
81 73 76 76 78 80 79 78 80 78 75 79 78 79 80 82 82 81 82 83 82 81 82 80 78 78 80 82 83 76 78 79 80 78 79 75 75 74 74 73 73 70 64 67 61 60 59 59 60
74 77 77 78 78 78 76 80 77 78 79 82 83 83 82 80 80 80 80 81 81 81 80 78 76 77 78 84 84 82 81 80 80 78 76 75 75 71 73 71 71 69 68 65 62 59 59 60 62
74 75 77 77 77 77 77 76 75 77 81 81 81 80 80 80 81 81 81 81 81 79 80 77 77 77 78 78 78 77 77 77 77 78 75 77 76 73 74 72 72 70 70 65 64 62 60 61 63
76 76 76 77 77 77 73 76 77 80 81 79 78 78 80 80 80 80 79 79 79 79 78 77 78 77 78 77 75 74 75 75 76 75 74 73 74 72 73 73 71 70 68 67 65 64 64 63 64
76 72 75 76 76 75 77 73 73 82 80 78 78 78 80 81 82 80 81 80 80 80 79 77 78 78 77 76 76 77 76 76 75 74 72 72 72 70 70 71 71 70 68 65 63 60 62 64 64
72 73 69 76 74 75 75 67 78 83 79 77 79 79 79 80 81 82 82 81 81 80 78 79 80 78 76 76 77 78 77 76 75 74 73 71 70 71 71 71 69 68 69 68 65 63 61 62 62
73 65 65 69 77 74 73 68 79 83 80 78 79 81 81 80 82 82 83 80 80 79 78 76 77 76 75 75 78 76 73 76 76 74 73 71 71 70 71 70 69 68 69 67 66 65 64 62 64
62 63 66 66 74 73 70 70 78 82 82 80 81 81 81 82 81 83 81 79 79 78 77 76 76 75 74 75 74 75 75 74 74 74 74 71 71 71 71 71 69 68 68 66 65 63 65 64 63
66 65 65 71 72 67 68 70 76 81 80 78 78 78 79 80 84 84 80 78 76 76 74 74 74 73 74 73 72 72 70 72 73 74 72 71 73 71 70 71 69 69 67 66 65 64 62 63 65
69 66 65 70 73 69 69 70 77 76 75 75 75 76 76 77 79 79 79 76 75 74 74 74 74 74 73 75 74 74 73 73 74 74 71 71 70 70 70 69 68 68 66 65 65 63 61 62 65
67 63 62 62 68 73 68 69 73 73 77 76 76 76 76 74 75 76 75 75 75 73 73 74 75 75 73 73 74 72 71 70 70 71 71 70 69 70 69 68 67 66 66 64 64 64 61 59 62
61 66 64 62 61 58 68 57 69 72 72 73 74 75 75 75 76 76 75 76 74 73 74 74 75 75 75 73 71 69 68 67 70 71 72 72 71 69 69 68 67 66 65 63 63 65 63 61 58
61 66 63 63 59 60 62 58 68 71 68 71 73 74 75 76 76 75 76 77 77 76 73 73 73 73 74 73 68 67 64 67 69 69 67 67 67 68 67 67 65 64 64 64 63 62 61 62 60
67 66 67 65 60 50 60 57 63 69 67 69 73 74 73 74 75 76 78 77 76 75 73 72 72 72 73 71 69 64 62 64 64 64 62 62 64 64 65 65 63 62 61 61 61 61 60 59 59
67 61 50 48 50 49 61 55 62 71 71 71 70 71 73 74 73 74 74 75 76 74 73 72 71 70 71 70 68 66 64 63 62 61 60 60 58 60 60 60 58 58 59 59 59 58 57 57 56
60 58 47 35 43 48 60 52 63 73 74 73 72 71 72 73 72 73 73 73 74 73 73 73 71 69 70 69 67 66 64 62 62 61 58 57 58 58 59 58 57 57 57 56 56 56 56 56 56
58 54 60 47 49 42 52 63 70 74 71 70 71 72 72 71 72 72 73 73 73 72 71 72 71 71 70 68 67 64 62 59 58 58 58 57 58 58 58 56 55 55 55 55 54 55 54 55 55
60 63 49 50 34 36 51 53 57 65 68 71 70 69 69 71 71 71 72 71 71 72 72 71 70 69 69 68 64 60 58 58 57 57 55 55 55 56 55 54 54 54 54 53 53 53 53 53 53
58 56 55 56 50 38 38 49 67 65 67 68 69 69 70 70 69 70 71 72 71 71 70 68 67 66 65 64 59 57 56 56 55 55 55 55 55 54 53 53 53 52 52 52 51 51 51 51 51
61 58 57 45 44 47 45 44 68 68 69 68 68 69 70 70 70 71 70 69 69 69 68 67 65 62 63 60 57 55 55 55 54 54 54 54 53 53 52 52 52 51 51 51 50 49 50 49 49

GFSSGP_sfc_temp_006.txt.gz
Temp
77 91 89 88 70 71 66 72 80 77 77 83 86 80 74 75 70 59 80 79 81 82 82 78 73 75 75 75 76 76 76 76 76 78 77 76 74 74 74 73 72 73 73 72 73 75 77 76 75
85 91 90 81 66 63 66 77 75 77 81 84 85 80 70 70 79 78 77 82 82 83 80 77 73 73 74 75 76 76 76 75 75 76 77 75 74 73 73 73 73 71 74 74 74 73 73 75 73
80 91 79 74 69 64 64 75 77 80 84 83 81 79 67 72 81 80 83 82 82 81 81 75 72 73 74 75 75 75 75 75 74 75 76 76 74 73 73 73 72 73 74 75 74 70 71 74 72
89 86 81 69 68 72 73 76 79 80 83 85 85 73 75 83 82 83 86 84 82 82 81 72 72 73 74 75 75 75 75 74 73 74 74 75 72 73 73 71 71 73 72 72 68 70 69 70 70
89 82 70 69 68 73 78 80 82 79 80 81 83 63 69 78 84 84 84 86 82 81 81 76 71 72 73 73 73 73 73 73 73 73 73 74 74 73 73 73 73 73 71 69 68 68 69 68 69
78 82 68 65 68 74 78 82 82 80 80 81 64 58 71 81 81 83 86 86 87 82 81 78 72 71 72 72 71 71 72 73 73 73 73 73 72 72 71 71 71 72 71 70 69 70 70 71 71
77 75 70 69 68 70 75 82 78 79 78 77 74 61 67 74 81 83 86 86 86 86 84 83 78 74 70 70 70 70 71 72 73 73 73 72 71 69 69 69 69 69 69 69 71 71 70 70 70
83 80 71 72 68 67 77 79 82 79 76 85 85 72 62 78 81 83 84 85 85 84 84 83 84 79 72 71 69 69 70 71 72 71 71 71 69 68 67 68 68 68 68 66 66 66 66 69 69
89 73 68 69 70 72 80 77 82 84 80 81 82 81 81 82 82 81 81 83 83 83 80 79 80 79 79 79 73 70 70 70 69 69 70 68 72 71 68 67 67 67 67 67 66 65 65 66 67
80 72 69 76 77 75 79 78 79 77 78 78 79 82 84 82 81 80 81 80 80 78 79 77 75 74 76 82 78 74 77 74 73 73 72 72 71 67 68 66 66 66 65 64 64 63 63 64 61
79 70 76 77 77 79 77 77 81 76 74 78 77 79 81 82 81 81 82 82 79 78 77 75 74 74 75 75 74 74 73 73 72 73 72 69 69 67 67 68 66 66 63 62 61 60 59 59 59
72 77 77 77 78 77 75 78 76 78 77 82 82 83 82 80 80 80 80 80 79 79 77 75 73 73 73 74 74 73 73 72 71 70 71 68 66 65 65 66 64 64 64 63 62 58 57 57 59
74 75 77 78 78 77 78 75 76 76 82 82 83 81 80 80 80 81 81 80 79 76 77 75 73 72 73 73 70 70 69 68 69 69 69 68 67 65 65 63 63 63 63 61 60 59 58 57 59
77 77 77 78 78 79 74 75 77 79 83 80 80 78 79 79 80 80 78 77 77 77 76 75 73 72 73 72 70 68 68 67 67 67 67 68 66 64 64 63 63 62 62 61 61 60 61 61 60
77 71 75 76 77 75 77 71 72 81 81 78 78 78 79 80 81 79 79 77 78 77 76 73 73 73 71 70 68 67 67 68 66 65 66 66 66 63 63 62 62 61 61 60 59 58 58 58 61
72 73 67 76 76 76 75 63 78 83 80 76 77 78 77 79 81 81 80 79 79 77 75 74 77 72 70 69 68 69 68 66 66 65 64 64 65 65 63 61 60 59 60 59 57 56 56 56 57
72 63 65 69 79 75 72 66 76 82 81 78 78 78 79 78 80 81 81 78 77 75 75 72 72 70 70 69 69 68 67 66 66 65 64 64 64 65 62 61 59 59 59 58 57 55 55 54 55
59 61 65 65 73 72 68 67 75 80 80 79 79 79 78 78 80 81 80 78 76 74 73 72 71 70 69 68 66 66 65 66 65 65 64 64 63 64 62 61 60 60 58 57 56 55 55 55 54
68 65 64 69 74 69 67 68 73 79 78 76 76 76 76 77 81 81 78 75 73 72 71 70 70 68 67 65 63 62 61 63 63 65 66 64 64 64 61 60 60 60 58 57 57 55 54 52 54
68 65 63 67 71 68 67 67 74 75 74 75 75 74 74 75 77 78 77 73 71 70 70 69 70 69 67 66 65 64 64 64 65 64 63 64 63 63 63 60 59 59 57 56 55 55 52 52 53
65 61 60 59 66 71 68 67 70 73 74 74 75 75 75 73 72 74 74 72 70 68 68 70 69 69 67 66 66 64 63 61 61 61 61 62 62 62 62 61 59 58 57 55 54 53 53 49 51
57 67 63 61 59 53 66 52 67 71 69 72 73 72 72 73 74 74 73 71 70 68 68 68 69 69 69 66 64 61 61 60 62 60 62 64 62 61 62 61 60 57 56 55 54 57 52 51 48
60 66 63 64 61 59 62 56 64 70 68 70 72 72 71 72 71 71 71 72 70 69 67 66 67 67 68 65 63 61 59 60 59 59 60 60 60 62 62 61 59 56 55 54 52 52 52 51 49
68 65 65 67 60 47 60 57 58 65 68 70 73 73 71 70 69 71 71 72 70 69 67 66 66 67 67 65 63 59 57 57 57 57 55 57 57 56 57 57 54 53 53 52 50 50 50 49 49
65 58 46 43 46 45 61 55 59 69 73 72 70 69 69 68 68 68 69 69 68 67 67 66 66 66 66 63 62 60 58 57 56 56 55 55 54 54 53 54 52 52 51 51 51 49 48 48 48
59 57 44 34 39 42 56 50 61 74 75 74 73 71 70 69 69 69 70 69 68 68 67 67 67 66 66 64 63 60 59 57 56 56 55 52 52 52 54 53 52 52 51 50 49 48 48 47 47
58 53 60 46 45 40 48 58 68 73 72 71 71 72 68 68 68 70 70 68 68 67 66 64 65 67 66 64 61 59 58 57 55 56 53 52 52 55 52 51 50 50 49 48 47 46 46 47 47
60 64 47 46 33 34 47 48 52 63 64 66 67 68 68 69 68 69 68 66 67 67 67 65 64 64 64 63 61 58 56 55 54 53 52 52 51 51 50 50 49 48 48 47 46 44 45 45 45
57 54 55 55 48 37 34 44 62 60 63 64 66 67 67 67 68 67 67 68 66 66 65 64 63 62 60 59 58 53 54 53 52 52 51 51 50 50 50 49 48 48 47 47 45 44 45 44 44
62 57 57 40 40 44 41 42 63 65 68 66 67 68 68 68 68 67 66 66 65 63 62 63 61 59 58 58 54 52 52 52 50 50 50 50 49 49 48 48 48 48 47 46 45 44 45 44 43

GFSSGP_sfc_temp_009.txt.gz
Temp
65 73 69 70 56 52 47 57 62 65 66 71 73 69 64 65 61 53 71 73 78 74 74 73 72 73 74 74 75 75 75 76 76 77 77 75 75 75 75 75 75 75 75 76 76 76 75 73 72
66 76 71 63 51 43 50 61 62 65 68 72 73 70 65 61 71 69 69 76 77 75 72 73 72 73 73 74 74 74 75 75 75 75 75 74 74 74 74 74 73 73 74 75 73 73 72 71 70
70 75 62 56 48 46 53 62 63 67 74 74 65 69 67 64 72 71 74 78 75 71 70 72 71 72 73 73 73 73 73 73 74 74 75 75 74 74 75 74 72 73 74 74 74 72 72 70 70
72 67 63 52 45 57 62 66 69 69 75 71 69 62 68 74 72 73 77 77 73 67 67 69 70 72 73 73 73 73 73 72 72 73 73 73 74 73 73 72 71 73 73 73 71 72 71 69 68
68 62 53 51 53 61 66 70 71 68 64 65 65 60 63 73 76 76 75 77 72 68 68 69 70 71 72 73 72 72 72 72 72 72 72 73 73 72 72 71 72 72 71 71 71 72 70 68 68
61 61 49 48 52 63 67 68 70 69 70 65 63 61 62 75 75 76 77 74 76 72 70 71 71 71 71 71 71 71 71 71 71 71 71 72 72 71 71 71 70 71 70 70 70 69 69 69 68
58 54 51 53 55 60 65 70 66 66 67 66 65 57 60 67 75 75 72 75 74 73 71 68 70 70 70 70 70 70 70 70 71 71 70 69 68 68 69 69 69 69 69 69 69 69 69 69 69
64 59 53 52 55 53 64 66 65 68 61 72 67 57 56 67 74 73 73 74 74 72 72 68 68 68 66 66 68 69 69 69 69 70 70 67 67 67 67 68 68 68 68 68 68 67 67 67 67
66 54 48 53 58 56 62 61 65 69 67 68 70 66 68 72 73 69 70 70 70 72 69 68 68 69 66 67 68 68 69 69 68 68 69 66 65 65 66 66 67 68 67 67 67 66 66 66 66
62 51 54 62 62 57 63 64 65 66 65 63 66 71 73 73 70 69 68 68 68 67 65 66 67 67 69 75 66 66 69 66 66 68 66 66 66 66 65 66 66 66 65 65 64 64 64 63 60
60 55 63 65 68 66 64 66 70 62 59 64 64 66 69 69 70 69 68 68 66 66 66 66 66 66 66 67 66 65 66 65 66 66 65 64 63 62 62 61 61 60 63 58 59 58 57 57 57
60 68 68 66 68 67 62 64 67 60 61 73 71 70 70 69 70 70 70 67 67 65 65 65 66 66 65 64 64 64 65 64 63 64 64 61 60 60 60 59 59 59 58 57 57 56 56 55 57
64 66 69 71 71 67 70 66 65 66 71 74 74 73 69 70 69 70 71 68 67 67 65 64 65 64 66 64 62 62 61 61 62 62 63 61 59 59 59 59 58 58 58 58 57 56 55 55 56
67 69 67 69 68 69 66 65 62 69 69 71 72 68 64 67 70 66 68 67 67 69 65 64 64 65 65 62 62 61 60 61 60 59 61 62 60 59 59 58 58 57 57 56 55 55 57 56 58
70 61 65 67 67 64 62 60 59 70 70 69 69 69 68 69 70 68 68 67 67 67 66 64 64 64 63 62 61 60 60 61 59 59 61 61 60 59 58 57 55 55 56 56 54 54 54 53 55
62 59 52 65 67 67 64 53 63 68 68 65 66 66 68 69 70 68 68 68 67 66 65 66 71 64 63 61 61 60 60 59 58 58 59 60 61 60 57 56 54 56 55 54 53 51 50 50 50
57 47 55 60 66 63 59 55 65 69 68 64 64 65 65 65 67 68 69 68 66 66 64 64 64 62 62 61 60 59 59 58 58 57 57 59 60 61 57 55 55 57 54 53 54 52 51 50 50
49 50 57 52 61 61 57 56 62 67 66 61 61 62 60 61 66 69 67 66 65 64 64 64 63 64 62 60 59 58 58 59 57 57 57 59 58 60 57 55 55 56 54 52 53 52 51 50 50
58 55 52 55 63 58 54 55 60 61 62 61 60 60 62 65 66 65 65 64 63 62 64 64 62 62 60 58 57 56 55 56 56 57 59 58 58 59 57 55 55 54 53 52 53 51 50 49 50
57 54 51 57 62 59 55 56 60 63 62 62 61 61 62 63 65 66 65 62 63 62 62 62 63 61 60 59 57 57 56 56 57 57 57 58 57 57 57 56 54 54 53 53 52 50 49 48 49
54 52 51 51 57 59 54 52 58 61 64 65 64 63 64 63 63 64 66 62 60 61 61 62 62 62 60 60 58 57 55 55 55 56 55 56 58 57 57 55 54 53 52 51 50 50 49 46 48
50 59 57 55 49 43 55 39 53 57 59 62 63 60 60 61 64 64 62 59 60 60 60 62 63 62 61 59 57 56 56 54 55 55 55 55 56 57 57 57 55 53 51 50 49 52 49 47 44
54 59 56 55 49 45 50 43 50 56 55 58 58 60 60 60 61 63 62 63 60 60 60 61 62 61 62 59 56 54 54 54 55 55 55 54 54 56 57 55 54 52 50 50 49 47 46 46 45
62 56 55 53 49 35 48 45 44 53 57 59 60 60 60 60 60 61 61 62 63 61 60 59 59 61 61 60 58 55 54 56 53 53 52 52 53 53 53 53 50 50 48 49 47 47 47 45 44
56 47 32 32 32 32 52 46 48 58 61 61 58 58 59 59 58 59 58 60 58 57 59 58 57 58 59 57 57 56 56 55 55 52 50 50 50 50 50 50 50 49 50 49 49 48 46 45 44
50 48 31 27 28 32 48 40 50 62 64 65 64 60 60 61 61 60 58 58 58 58 58 57 59 59 59 56 55 55 54 55 55 53 50 47 47 49 49 49 48 48 48 48 47 47 47 44 43
51 41 52 39 35 29 38 48 59 60 62 63 63 63 59 60 61 59 58 58 57 57 57 55 55 57 57 57 54 53 52 50 49 47 47 48 48 50 48 47 46 46 45 46 47 44 43 42 43
54 56 39 34 26 28 37 39 43 52 56 59 57 58 57 58 58 59 57 57 57 56 55 54 55 56 56 55 53 51 49 48 47 47 47 47 46 47 46 45 44 44 46 46 45 44 43 42 41
49 45 47 49 38 30 28 34 52 55 57 55 61 62 59 58 56 57 57 57 56 54 54 53 55 55 53 53 50 48 47 47 46 48 47 47 47 46 45 45 45 46 46 46 44 43 42 41 41
55 51 51 34 34 33 32 37 58 56 57 61 60 59 57 58 57 57 56 55 54 54 53 55 55 53 52 50 47 46 46 46 45 45 46 46 45 46 46 46 46 46 45 44 42 41 41 41 40

GFSSGP_sfc_temp_012.txt.gz
Temp
63 66 64 66 55 49 44 51 58 59 60 66 69 66 61 61 59 51 69 72 71 69 70 71 72 73 74 74 74 75 75 76 76 76 76 76 76 75 75 74 74 75 76 76 76 76 75 75 74
64 73 67 58 48 42 47 57 60 62 66 69 68 67 63 59 66 66 67 72 72 72 70 70 72 72 73 73 74 74 75 75 75 75 75 75 75 75 75 74 73 73 74 75 75 75 74 72 71
68 72 61 52 44 45 49 59 61 64 66 66 64 66 64 61 67 67 71 72 71 68 68 70 71 72 73 73 73 73 73 73 73 74 74 74 74 75 74 73 72 73 74 74 74 74 73 70 70
68 65 59 51 44 51 57 62 64 65 66 68 65 59 65 69 68 70 74 71 67 65 66 68 70 71 72 73 73 72 72 72 72 72 73 74 74 74 73 72 72 73 73 74 73 73 71 70 69
64 58 50 47 49 57 62 65 65 61 60 63 64 58 61 68 72 74 73 71 67 65 66 68 69 71 72 73 72 72 72 71 71 72 72 72 72 72 72 71 71 72 72 72 72 72 69 69 68
60 57 47 44 50 60 62 65 66 62 61 63 62 60 59 68 70 72 74 71 71 67 67 68 70 71 71 72 71 71 71 71 71 71 71 71 70 70 70 70 70 70 70 70 70 69 69 68 67
57 51 45 47 50 56 61 64 61 63 63 61 64 56 59 64 70 73 72 71 71 69 67 66 67 69 70 69 69 69 70 70 70 69 69 69 68 68 69 69 69 69 69 69 69 68 68 68 68
59 54 45 46 51 50 64 63 63 65 59 66 63 56 56 65 70 72 69 69 68 68 67 65 66 66 65 65 68 68 68 69 69 69 67 67 67 67 67 67 68 68 68 68 68 68 68 67 67
60 51 45 46 52 53 61 58 63 66 67 64 64 64 64 69 71 69 66 66 65 68 65 65 65 65 64 64 67 67 69 68 68 68 67 65 63 63 64 66 67 68 67 67 66 66 65 65 65
57 47 48 59 58 51 56 57 60 62 62 61 62 66 67 69 67 67 65 65 63 63 64 63 63 64 64 71 66 64 67 65 65 65 64 64 62 61 63 64 66 66 65 65 64 64 63 61 58
54 52 59 60 61 58 57 61 64 59 56 61 60 62 65 65 65 65 65 67 64 63 63 63 65 64 64 65 63 62 62 62 63 64 62 62 61 61 60 59 60 58 61 57 58 57 55 56 55
57 61 63 61 62 61 58 58 62 56 63 70 66 67 65 65 65 65 63 64 63 62 62 62 63 64 62 61 62 62 62 61 61 61 62 59 59 58 58 58 58 57 56 56 55 55 55 54 54
59 61 64 67 67 63 65 61 63 61 65 68 67 67 65 64 64 65 65 64 62 62 61 61 62 63 62 61 60 59 59 59 60 60 61 60 58 58 58 57 56 56 56 56 55 58 58 57 55
63 63 64 66 64 63 62 61 59 65 65 66 67 64 64 65 66 63 63 63 63 63 61 61 62 63 62 60 60 59 58 58 58 58 59 60 58 57 57 56 56 55 55 54 54 53 53 53 54
65 59 62 64 61 61 61 55 57 63 65 65 65 65 65 66 66 66 66 64 65 62 62 61 61 61 61 60 60 59 59 59 57 57 58 59 58 57 56 55 54 54 54 54 52 52 51 50 52
59 55 49 61 63 64 59 51 63 62 62 62 62 63 64 65 67 64 65 65 63 62 62 62 68 61 60 60 60 60 58 57 57 57 56 58 59 58 55 54 53 53 53 52 50 50 49 49 48
52 45 49 57 63 59 55 53 61 62 63 62 60 60 61 61 63 64 65 63 62 62 62 62 61 60 59 58 58 57 58 56 56 56 56 58 58 58 55 53 53 54 52 50 51 50 49 48 49
45 47 51 47 57 56 52 53 58 60 60 60 59 58 59 62 65 67 64 63 61 60 60 60 59 59 59 57 55 55 54 55 54 55 55 58 57 58 54 53 53 53 51 50 49 50 49 49 48
52 49 47 51 58 55 50 51 57 58 54 55 54 56 57 59 60 59 60 59 59 59 60 60 60 59 56 55 54 52 53 54 54 54 57 56 57 57 54 53 53 52 51 50 50 49 49 47 47
54 49 47 52 58 53 52 51 54 57 56 56 56 56 57 58 59 61 60 58 60 60 60 59 60 59 58 56 55 55 54 54 55 55 54 55 55 55 55 53 52 51 50 50 50 49 47 47 47
50 48 47 49 52 53 52 50 54 58 58 59 58 58 59 59 59 60 61 58 56 58 59 61 60 59 58 57 55 54 52 52 52 53 52 54 55 56 54 54 52 50 50 49 49 49 47 45 45
47 55 54 51 46 40 51 38 49 53 54 57 57 56 57 59 60 61 60 56 56 58 57 58 60 59 59 57 54 53 56 56 57 56 53 54 55 55 54 53 52 50 49 48 47 49 45 44 43
52 56 53 51 44 42 46 40 48 54 53 53 54 55 55 56 58 58 57 60 61 59 59 59 60 59 60 57 54 52 52 55 57 51 52 51 52 53 54 52 51 49 48 47 47 46 44 45 43
58 53 50 48 44 34 44 42 42 48 51 53 55 57 57 54 56 58 59 57 57 57 57 57 57 58 58 57 55 52 51 54 52 51 49 49 48 47 49 51 49 49 48 48 46 46 45 44 45
51 43 31 32 30 31 47 42 43 51 56 58 56 54 55 58 56 56 56 57 55 54 55 56 56 58 59 55 54 54 52 52 51 52 51 50 49 48 46 47 46 46 45 45 45 45 45 45 44
48 45 30 27 27 32 44 37 46 57 58 59 59 58 59 58 57 55 56 55 55 56 54 56 57 57 58 55 54 53 51 50 50 50 50 47 48 46 47 45 44 45 45 45 45 43 43 43 43
49 40 48 37 32 28 36 44 53 56 56 59 58 57 56 56 54 54 55 54 54 53 53 53 53 53 56 53 52 50 50 49 47 45 45 46 46 47 45 44 44 44 44 44 43 42 43 44 43
50 52 38 33 23 27 34 36 40 49 52 56 55 51 52 53 54 54 54 54 52 51 52 51 52 54 54 52 49 50 47 46 45 44 43 43 44 45 44 44 44 44 43 44 44 43 42 41 41
46 42 44 44 34 26 26 32 47 51 52 50 53 52 51 51 52 52 54 55 56 57 56 53 51 50 50 49 49 46 45 44 43 43 43 43 44 45 44 43 44 44 43 44 43 41 41 40 39
49 45 44 29 33 31 32 36 55 51 55 53 51 53 53 52 50 51 51 52 52 51 50 50 51 49 49 48 46 44 43 43 42 42 43 44 44 44 45 44 44 44 43 43 41 39 40 37 37

GFSSGP_sfc_temp_015.txt.gz
Temp
62 65 63 64 55 48 42 50 56 57 56 62 65 63 58 58 57 51 70 70 68 66 68 70 72 73 73 74 75 75 75 76 76 75 75 75 75 75 75 74 74 75 76 76 76 76 76 75 74
63 69 64 56 48 41 46 53 55 56 62 66 65 63 59 57 63 64 66 70 69 68 68 70 72 73 73 73 73 74 75 75 75 75 75 75 75 75 74 73 72 72 75 75 75 75 75 74 72
65 68 60 50 43 43 46 53 57 60 65 62 61 65 62 59 65 66 69 70 68 66 67 69 71 72 72 73 73 73 73 73 73 73 74 74 74 74 74 72 72 73 74 74 75 75 73 71 71
66 63 57 50 45 49 52 54 61 61 63 65 63 57 64 66 67 69 70 69 66 64 66 68 70 71 72 72 72 72 72 72 72 72 73 73 73 73 73 70 70 73 73 73 73 73 71 70 69
61 56 49 46 45 52 57 61 61 59 59 61 61 56 58 66 68 68 67 68 65 63 65 67 69 71 72 73 72 72 71 71 71 72 72 72 72 72 71 71 71 72 72 72 72 72 70 69 69
60 55 47 42 46 55 59 59 62 60 59 62 59 58 57 65 67 67 69 66 68 66 66 67 70 71 71 72 71 70 70 70 70 70 71 71 70 70 70 70 70 70 70 70 70 69 69 69 68
56 52 43 45 51 54 58 60 61 59 57 59 62 54 57 62 67 69 68 66 67 66 65 66 67 69 69 69 69 69 69 69 69 69 69 69 68 68 69 69 70 69 69 69 69 68 68 68 68
56 53 43 44 49 48 58 59 59 61 56 62 60 54 55 64 68 69 67 66 65 64 65 64 65 66 64 64 67 67 68 68 68 68 68 67 67 67 68 67 68 68 68 68 68 67 67 67 66
57 48 43 45 48 52 58 55 60 61 62 59 61 60 63 68 67 64 63 63 62 65 64 64 64 64 63 63 66 67 68 68 67 67 66 64 63 63 63 66 67 67 66 66 66 65 64 63 63
54 46 49 55 55 50 56 55 57 59 56 58 58 62 64 67 65 63 62 61 61 62 62 63 63 63 63 68 64 63 65 64 64 64 63 62 61 60 62 64 66 66 65 65 64 63 62 59 56
52 51 57 59 58 58 55 57 59 58 51 59 60 60 62 63 64 63 63 64 61 61 61 61 61 61 62 63 62 61 61 61 62 62 62 61 61 60 59 59 59 57 61 56 57 56 54 54 53
55 58 60 58 62 58 55 55 58 54 61 67 64 63 62 62 63 61 62 63 61 61 62 61 61 61 60 61 61 61 61 61 60 60 61 59 58 58 58 57 57 56 55 55 54 54 54 54 54
57 58 62 63 63 59 62 59 59 60 63 65 64 63 62 62 61 62 63 64 61 60 60 60 60 60 61 60 59 59 59 59 59 59 59 59 57 56 56 56 55 55 55 54 54 54 54 54 54
61 61 62 61 61 60 58 58 56 62 61 63 62 60 60 62 62 60 60 61 60 60 60 59 59 60 60 59 58 58 58 58 57 57 58 59 57 56 56 55 54 54 54 53 52 51 51 50 51
61 57 60 59 59 58 59 55 56 59 60 62 60 62 60 61 62 62 64 61 62 60 60 59 59 59 59 59 58 57 57 58 56 57 57 57 57 55 56 54 54 53 53 52 51 50 48 48 49
56 53 48 59 58 60 57 50 61 59 58 60 59 59 60 61 63 61 63 63 59 59 59 59 64 59 58 57 57 57 56 55 55 55 55 56 57 56 54 53 52 52 52 51 49 48 48 47 46
49 42 45 53 57 56 54 51 60 57 59 59 58 58 59 58 60 61 61 59 59 59 58 58 59 58 58 57 56 55 56 54 54 54 54 55 56 56 54 52 52 51 51 49 49 48 48 47 47
42 43 48 45 54 54 49 51 55 57 57 57 55 54 55 57 60 62 62 61 59 57 58 59 58 58 57 54 53 53 52 53 52 53 53 55 54 55 53 52 52 51 49 48 48 48 47 47 47
49 46 43 48 54 52 48 48 54 53 52 52 50 52 54 55 55 55 57 56 56 56 58 58 57 57 54 52 52 51 52 52 52 53 55 54 55 55 52 51 51 50 49 49 48 47 47 46 45
50 46 45 50 54 50 49 49 52 55 53 52 52 53 55 55 56 57 55 54 57 58 57 57 57 57 55 54 53 53 52 52 53 54 53 55 55 55 54 52 52 51 49 48 47 47 45 45 44
47 45 45 46 50 49 48 47 51 55 56 57 57 54 55 55 56 56 57 55 54 56 57 58 58 57 56 55 54 52 51 51 50 52 51 54 55 56 54 53 53 51 51 50 48 47 46 44 44
44 52 50 48 44 39 47 37 47 51 52 53 53 52 51 56 56 57 57 56 56 57 56 56 58 57 57 55 53 52 52 55 57 57 55 55 53 55 56 55 53 52 50 47 46 48 44 43 42
49 53 48 47 42 39 44 38 45 49 49 50 50 54 53 53 55 58 59 59 57 56 55 54 55 57 57 56 54 52 50 53 55 53 49 51 51 52 54 54 54 52 50 48 46 45 43 43 42
55 49 47 45 42 33 40 39 39 44 47 50 53 54 54 55 56 56 56 56 57 54 53 53 54 56 55 54 53 51 50 51 50 51 48 51 48 48 48 49 48 47 46 43 43 45 45 45 44
50 41 31 32 30 31 43 39 41 49 52 53 54 54 58 56 53 54 54 54 54 53 51 53 53 54 54 53 53 54 52 50 48 49 49 48 44 42 43 45 46 43 44 43 45 43 44 44 42
45 42 29 26 26 30 42 34 43 54 55 56 57 57 54 53 53 51 52 51 51 50 51 51 52 53 54 53 53 52 50 48 48 47 46 45 43 41 41 42 44 44 44 44 43 42 42 42 41
46 39 45 34 32 27 34 41 49 52 52 53 52 52 49 49 50 50 51 51 50 51 51 50 51 52 51 51 49 48 47 47 46 44 42 40 42 43 41 42 43 44 44 44 43 41 41 41 42
49 50 36 32 22 26 32 34 38 46 48 52 50 48 48 50 50 49 50 51 52 52 51 49 49 49 49 48 47 50 48 45 44 41 40 40 41 41 42 43 44 44 43 42 42 41 42 41 39
43 40 40 41 33 27 24 31 44 45 48 47 47 48 47 46 47 48 49 50 50 50 50 49 48 47 47 46 46 45 44 43 41 40 40 40 41 42 43 44 45 43 42 42 41 41 40 39 38
47 42 41 31 32 30 28 33 50 49 49 47 46 48 48 48 49 49 51 51 49 49 48 47 46 46 45 45 45 43 42 41 40 40 41 42 44 45 45 43 43 43 43 42 40 38 39 37 36

GFSSGP_sfc_temp_018.txt.gz
Temp
59 62 63 63 56 51 43 47 56 54 55 60 62 60 56 55 56 50 66 68 67 66 67 69 72 73 74 74 75 75 75 76 76 75 75 75 75 75 75 74 74 74 76 77 76 77 77 75 74
61 67 64 56 47 41 45 52 53 54 59 62 62 61 57 55 61 61 64 70 68 66 67 68 72 73 73 73 73 74 75 75 75 75 75 75 75 75 74 73 72 71 75 76 76 76 76 75 72
62 65 59 49 41 41 44 52 53 57 60 62 59 62 59 56 63 64 67 69 67 66 66 68 71 71 72 73 73 73 73 73 73 73 74 74 74 74 73 72 70 73 74 75 75 75 74 72 71
64 62 57 51 42 47 50 54 57 58 61 64 60 57 62 65 66 68 68 68 64 63 64 68 70 71 72 72 73 72 72 72 72 72 73 73 73 72 71 70 70 72 74 74 73 73 72 70 69
60 55 48 44 45 52 55 60 59 58 58 59 60 54 57 63 66 67 66 67 63 62 64 65 68 71 72 73 72 71 71 71 71 71 72 72 72 72 71 71 71 71 71 72 72 72 70 69 69
58 54 44 41 46 54 57 58 60 59 59 59 58 56 55 62 64 65 66 63 65 63 64 66 70 71 71 71 71 70 70 70 70 70 71 71 70 70 70 70 70 70 70 70 70 69 69 68 68
54 49 42 43 46 52 56 58 55 57 57 56 60 53 56 61 65 66 65 63 64 64 64 64 65 68 69 68 68 68 69 69 69 69 69 69 68 68 69 69 69 69 69 69 69 68 67 67 67
54 53 43 42 47 47 55 57 56 57 54 60 59 53 54 62 66 65 65 63 62 63 64 63 63 64 63 63 67 67 68 68 68 68 67 67 67 67 67 67 68 68 67 67 67 66 65 65 64
54 49 43 44 47 49 55 52 55 59 59 58 59 59 60 66 64 62 61 61 61 64 63 63 63 63 63 62 66 67 68 68 67 67 66 63 62 62 62 66 67 67 66 66 66 65 64 62 62
53 47 46 54 53 49 52 53 57 57 54 55 56 58 61 64 62 61 60 60 60 61 62 62 62 62 62 67 63 62 64 63 63 63 62 61 60 60 62 64 66 66 65 65 64 63 62 58 55
50 50 53 55 55 54 54 56 57 56 50 59 60 58 60 60 60 61 61 61 61 62 61 62 62 61 61 62 60 60 60 61 61 61 61 61 60 59 59 58 58 57 61 55 56 55 54 54 53
56 56 56 56 58 57 53 54 55 52 60 66 62 62 60 60 60 60 60 61 60 60 61 61 60 60 60 60 60 60 60 60 60 60 60 59 58 58 57 57 57 56 55 54 53 53 54 54 54
57 56 59 59 62 58 59 55 56 59 63 61 61 61 61 61 60 60 62 60 59 59 60 59 59 59 59 59 59 59 59 60 59 59 59 58 57 56 56 56 55 55 54 54 53 53 53 53 53
57 56 56 58 57 57 56 55 55 60 58 59 60 58 58 60 61 58 59 60 59 59 59 59 58 58 58 57 57 57 57 57 57 57 57 58 57 56 55 55 54 53 54 53 52 51 50 50 51
58 56 57 59 56 55 53 53 54 59 57 59 58 58 58 59 59 61 62 60 61 59 59 58 58 58 57 57 57 56 56 57 55 56 56 57 57 55 55 54 53 53 53 52 51 50 48 47 49
53 51 46 56 57 55 55 48 59 56 54 58 57 56 58 59 60 58 59 59 58 58 59 58 62 58 57 56 56 56 55 54 54 54 54 55 56 55 54 53 52 53 52 51 49 48 47 47 47
47 40 42 50 53 53 53 49 57 58 56 57 55 54 55 56 58 57 59 58 57 58 58 57 57 57 57 55 54 54 54 53 53 52 53 54 54 55 52 52 52 51 50 49 48 47 47 46 46
40 41 44 42 52 52 46 48 52 54 53 53 52 52 52 53 57 59 60 58 58 57 57 57 57 57 56 53 52 52 51 52 51 52 52 53 53 54 52 51 51 50 48 48 46 47 46 47 47
47 43 41 44 50 49 45 45 50 51 51 50 49 50 51 54 53 52 54 55 55 55 56 57 56 56 53 51 51 51 52 52 52 52 53 53 54 53 52 52 50 50 49 50 48 46 46 45 44
47 43 43 48 50 47 47 46 49 52 49 49 49 50 51 51 52 54 52 52 54 55 56 56 57 56 54 53 51 51 50 51 51 52 52 52 52 53 53 52 52 50 50 47 47 46 44 45 44
46 43 42 44 48 46 45 45 48 52 53 54 53 52 53 53 54 54 54 52 53 55 55 57 56 57 55 54 53 52 51 51 50 52 51 53 53 54 52 53 53 51 51 51 50 48 46 46 43
42 49 48 46 42 38 44 36 44 47 49 51 53 52 52 54 54 54 55 53 53 54 54 54 55 56 57 54 52 50 49 49 52 51 51 55 52 52 53 53 52 52 51 51 48 47 45 44 42
48 49 45 44 40 37 42 37 43 46 46 49 51 52 51 54 53 55 55 56 53 52 51 52 53 53 53 52 51 50 49 48 50 50 49 51 50 49 51 52 52 50 48 49 48 45 45 45 43
53 46 45 42 39 32 37 37 38 41 44 48 50 53 55 54 53 54 54 54 52 50 50 50 52 53 53 52 52 50 47 47 48 49 47 48 46 45 45 46 45 44 43 42 44 45 45 43 44
48 39 30 30 29 30 41 37 39 47 50 50 51 52 50 49 49 49 49 49 50 52 51 52 51 52 54 54 53 49 47 46 46 47 47 46 44 40 39 41 41 42 42 42 42 43 42 43 42
43 40 28 26 25 29 39 33 41 50 52 54 53 49 48 47 48 48 48 48 52 52 50 50 52 52 52 50 48 47 47 48 48 47 45 42 40 38 40 41 41 41 41 41 42 43 42 42 42
43 37 42 33 31 27 32 38 45 47 48 49 47 48 46 46 47 47 48 49 51 52 52 49 48 49 49 47 46 46 45 46 47 45 41 39 39 41 40 40 40 41 43 44 43 41 41 41 40
47 48 35 31 21 25 31 33 36 42 44 46 45 44 46 47 48 49 50 51 51 49 48 48 47 47 47 46 45 47 45 44 43 41 40 38 39 40 40 40 41 41 43 43 42 41 41 40 40
42 39 38 38 32 23 23 30 42 42 44 43 43 45 45 46 48 48 49 49 49 48 48 47 46 46 45 44 44 43 45 44 41 39 39 38 40 40 41 42 43 43 43 41 39 40 41 40 39
43 40 39 28 30 29 27 30 45 46 45 44 44 46 46 48 48 48 48 48 47 48 48 47 46 45 44 43 43 42 41 40 39 38 39 40 42 43 43 44 43 42 40 40 38 37 37 36 36

GFSSGP_sfc_temp_021.txt.gz
Temp
70 72 74 75 67 64 56 60 65 63 64 68 69 68 65 63 63 60 72 74 75 75 76 76 72 73 74 74 75 75 76 76 76 76 75 75 75 75 75 74 74 75 77 77 77 77 77 76 75
73 73 74 67 61 57 58 62 63 64 66 68 68 66 65 61 68 69 72 74 76 75 75 76 72 73 73 73 74 74 75 75 75 75 75 75 75 75 74 74 73 74 75 76 76 76 75 75 73
74 74 73 62 56 56 58 62 64 65 67 68 66 68 66 64 69 72 74 74 74 74 75 75 71 72 73 73 73 73 73 73 73 74 75 75 75 74 73 70 71 73 75 75 75 75 74 72 71
76 76 69 64 57 60 62 65 65 66 68 70 68 65 68 72 71 74 75 75 75 74 75 72 70 71 72 73 73 72 72 72 72 72 73 74 73 73 72 71 71 72 73 74 74 73 71 70 69
71 70 62 59 58 62 65 67 67 65 66 66 68 61 64 70 73 75 74 74 74 73 74 75 69 71 72 73 72 71 71 71 71 71 72 72 72 72 71 71 72 71 71 72 71 71 70 69 69
70 69 59 56 59 64 66 67 67 65 65 65 65 64 64 70 72 73 74 74 74 74 74 75 71 71 71 71 71 70 70 70 70 70 71 71 70 70 70 70 70 70 70 70 70 69 69 68 68
67 63 56 56 59 63 66 69 67 66 65 66 69 62 64 68 72 73 73 73 74 75 75 75 76 74 69 69 69 69 69 69 69 69 69 69 68 68 69 69 69 69 69 69 68 68 67 67 66
66 65 56 57 58 60 66 68 68 68 65 68 69 64 62 71 73 73 73 73 73 73 75 74 75 75 74 74 68 68 68 68 68 68 68 67 67 67 67 68 68 68 68 68 67 66 66 65 65
67 61 55 58 59 62 66 67 69 70 68 68 70 70 70 75 72 70 70 71 71 72 73 73 75 74 73 74 73 69 68 68 68 68 67 67 74 73 72 67 67 67 67 66 66 65 64 63 63
65 59 59 64 65 66 67 68 69 68 67 67 67 68 70 72 71 69 70 70 71 71 73 74 73 73 73 75 73 73 73 75 74 74 72 74 71 73 71 69 66 66 65 64 64 63 62 65 71
64 62 63 65 68 68 66 68 68 68 66 70 71 68 69 70 70 70 72 74 75 75 74 73 72 72 72 73 75 75 75 74 74 71 72 71 71 71 72 72 71 71 66 70 67 68 68 66 68
64 64 67 68 66 66 67 69 67 67 73 73 72 72 70 69 70 71 72 73 73 73 74 74 72 70 70 73 74 74 73 73 73 73 70 71 71 69 69 70 70 69 70 68 68 67 66 66 65
66 66 66 68 66 68 68 68 68 68 73 71 70 68 69 70 71 72 74 74 73 72 73 73 70 70 70 69 72 71 71 72 73 72 70 71 70 69 70 69 69 69 69 68 67 67 66 65 65
66 66 65 67 67 66 66 66 68 71 71 68 67 69 70 70 71 71 70 72 71 73 72 72 71 70 70 70 69 70 71 71 71 71 70 68 69 68 69 68 68 68 68 68 66 65 66 65 65
65 64 64 64 65 65 64 64 66 69 70 68 66 68 69 69 71 71 73 73 74 73 73 70 70 70 69 69 69 70 71 69 70 70 68 68 68 68 67 68 68 69 68 66 65 64 64 64 63
61 61 58 63 65 64 67 59 68 68 67 70 68 66 66 69 70 71 70 71 72 71 70 71 70 70 69 68 69 70 70 69 69 68 68 67 67 67 66 67 67 68 66 66 65 64 64 63 63
58 54 54 58 61 62 62 61 66 66 62 64 65 65 66 68 68 70 71 71 71 70 70 70 69 70 69 68 69 68 67 68 69 68 68 67 66 66 66 67 67 66 66 64 64 63 62 63 63
52 52 53 53 60 60 57 58 62 61 61 60 60 63 64 66 69 69 70 69 69 68 70 70 69 69 67 68 66 68 67 68 67 68 68 66 67 65 65 66 65 65 64 64 63 61 62 63 63
56 53 52 55 58 58 54 55 60 60 61 60 61 62 63 65 66 66 65 67 67 66 68 68 69 68 68 67 66 68 66 67 68 68 66 65 66 65 64 65 65 64 62 63 62 62 59 60 61
56 52 52 55 57 56 56 57 59 60 58 59 61 62 63 65 66 65 65 64 65 68 68 67 67 65 65 66 65 65 64 66 65 65 65 65 64 64 63 63 64 63 62 61 61 59 60 60 61
53 53 51 51 54 55 54 55 56 60 61 62 62 62 63 63 65 66 65 64 63 63 62 64 65 65 64 63 65 65 65 65 66 67 67 67 65 64 63 62 62 62 61 61 61 60 58 59 60
49 55 53 51 51 49 52 48 53 54 57 58 59 62 63 65 65 64 64 62 61 60 61 63 63 64 64 63 63 61 61 60 63 62 63 63 63 62 62 61 60 60 61 59 60 61 59 58 58
53 54 51 51 49 49 50 50 52 55 53 56 60 60 61 62 61 61 61 61 60 60 60 62 63 63 62 61 61 60 59 60 60 60 59 60 61 61 60 59 58 58 59 58 57 57 55 57 53
56 52 50 49 48 43 46 47 47 50 51 55 58 57 55 56 58 59 60 61 61 61 61 61 62 62 62 61 60 58 56 56 57 57 58 59 59 59 56 55 54 54 54 53 54 53 52 53 52
55 48 42 41 41 40 46 45 46 51 54 55 54 54 54 55 56 58 59 61 61 60 59 61 61 60 60 59 57 57 56 55 56 57 57 56 56 56 53 52 52 51 51 51 51 50 49 49 46
50 48 39 33 34 38 44 41 47 53 55 55 55 55 55 55 56 57 58 59 60 59 60 60 59 59 59 58 57 57 57 57 57 56 55 54 53 52 50 50 51 50 50 50 50 45 44 42 39
50 44 48 39 36 35 42 46 52 52 52 53 54 55 54 55 57 58 60 60 59 57 58 57 57 57 59 58 56 56 56 54 54 54 53 52 51 50 49 50 50 50 50 47 45 42 41 42 42
53 52 43 41 32 31 40 40 45 48 50 51 51 52 54 55 58 60 61 59 59 59 60 58 58 57 57 57 55 55 54 54 53 51 50 49 49 49 49 50 49 48 49 48 47 46 46 44 43
48 46 44 44 39 33 29 40 50 50 51 52 51 51 53 55 57 58 58 59 59 58 58 57 57 56 56 55 53 52 52 51 50 48 48 48 48 49 48 48 48 46 45 46 47 46 46 46 45
50 46 44 38 35 37 35 38 52 52 52 52 50 51 54 55 56 56 57 56 56 57 59 58 57 56 55 53 52 52 50 49 48 47 48 48 48 47 46 45 42 41 42 46 46 44 44 43 43

GFSSGP_sfc_temp_024.txt.gz
Temp
78 87 92 89 77 79 69 68 78 73 74 78 79 78 76 76 73 68 84 85 86 86 87 85 73 74 74 75 75 76 76 77 76 76 76 75 75 75 75 75 75 76 77 77 77 77 77 77 75
90 86 90 88 74 67 67 74 73 76 77 79 79 78 77 71 78 79 82 84 86 85 86 85 72 73 74 74 74 75 75 76 75 75 75 75 75 75 75 74 73 75 76 77 77 77 75 74 73
87 87 86 81 77 68 68 74 75 76 77 77 76 80 76 73 80 82 86 85 86 85 86 82 72 72 73 73 73 73 73 73 73 74 75 75 75 74 74 72 72 73 75 75 75 75 72 71 70
90 89 86 76 70 70 74 77 78 76 78 80 80 74 78 82 81 85 85 84 85 85 86 74 71 72 73 73 73 73 73 72 72 73 74 74 74 73 73 73 72 73 73 73 74 72 71 70 70
93 86 75 72 69 73 79 79 79 77 77 78 79 72 73 79 83 84 83 84 84 85 85 83 70 72 73 73 73 72 72 72 72 72 72 73 73 72 72 72 72 72 72 72 72 71 70 69 69
84 87 72 67 68 73 77 79 78 77 78 77 77 75 74 80 81 83 84 84 86 86 84 83 72 72 72 72 71 71 71 71 71 71 71 71 71 71 71 71 70 70 70 70 70 69 69 68 68
82 80 72 70 68 71 74 79 77 77 76 76 80 73 73 78 83 84 85 87 86 87 86 86 85 77 70 70 70 70 70 70 70 70 70 69 69 69 70 70 70 70 70 69 68 68 67 67 67
84 81 71 72 69 69 76 77 80 78 75 80 81 74 73 81 83 84 84 85 85 85 86 85 85 85 83 82 69 69 69 69 69 69 68 68 68 68 68 69 69 69 68 68 67 66 66 66 65
83 75 70 69 70 71 78 76 79 81 78 77 79 81 83 84 83 82 82 83 84 84 83 84 85 83 83 85 78 70 69 69 68 70 68 69 84 81 78 68 68 68 67 67 66 65 64 64 64
84 75 70 75 76 76 77 77 78 77 77 77 79 80 82 82 81 80 81 81 82 82 83 85 82 82 82 86 83 83 83 86 84 83 81 85 81 81 78 72 67 66 66 65 65 64 64 66 81
79 72 75 75 78 80 78 77 80 77 74 80 79 81 82 81 81 81 83 84 84 84 85 84 82 81 81 84 86 87 86 86 85 81 81 81 80 81 80 80 79 79 69 79 75 75 79 75 77
73 76 78 77 77 77 76 80 76 79 80 82 84 85 83 81 81 82 83 85 85 85 85 85 82 81 81 85 87 87 85 85 83 84 79 79 80 79 78 80 79 77 79 76 77 78 74 73 74
76 75 77 77 76 77 76 76 76 78 83 83 83 83 83 83 84 85 86 87 87 85 86 84 82 80 82 79 84 83 81 83 82 82 81 79 79 77 78 77 78 78 79 78 76 76 76 74 73
75 76 75 76 76 75 73 75 77 79 82 80 80 82 84 84 84 84 84 84 84 85 85 84 82 81 81 81 80 82 82 83 82 82 81 77 77 77 77 77 77 78 78 78 76 75 75 75 74
76 72 75 74 75 73 76 73 74 79 80 78 79 81 84 84 85 84 85 85 86 86 85 83 82 81 80 80 81 82 84 81 82 82 78 77 76 76 75 77 77 78 78 75 74 74 74 73 74
73 73 68 72 74 73 76 69 76 79 77 79 79 79 80 82 84 85 84 84 86 85 84 83 82 81 81 81 81 82 84 81 81 80 80 77 75 75 75 76 76 77 76 76 75 74 73 73 73
71 66 64 66 72 72 72 68 75 77 73 76 79 80 80 82 83 83 82 83 84 85 84 82 82 81 81 80 81 79 77 79 82 80 80 77 76 75 74 75 75 75 75 75 74 73 72 71 72
62 63 63 63 69 71 68 68 72 73 74 73 75 77 77 78 81 82 81 83 83 82 81 81 82 80 78 80 79 80 79 80 80 80 80 77 77 75 73 74 74 74 73 73 73 71 73 72 71
66 63 62 66 68 66 65 67 69 73 75 74 75 75 76 77 78 79 77 78 78 76 77 77 78 77 79 79 77 78 77 78 78 80 77 74 75 74 72 73 73 73 72 71 71 71 69 69 71
64 61 61 64 66 64 66 66 69 71 70 72 74 74 76 77 76 75 75 74 74 74 74 75 74 74 75 79 76 75 73 76 75 76 75 75 73 72 72 70 71 71 70 69 68 68 67 68 70
63 60 59 59 64 65 65 63 65 68 71 72 73 75 75 73 73 74 73 72 73 71 72 74 74 73 72 73 76 77 77 76 75 74 74 73 70 70 70 70 69 68 68 68 68 67 66 64 67
59 63 61 60 60 59 63 57 60 65 66 68 70 71 71 72 74 73 72 71 70 70 72 73 73 73 72 71 72 69 70 68 69 69 71 70 70 69 69 68 67 66 67 66 66 68 65 65 62
59 62 60 59 59 59 60 59 58 64 61 64 66 67 68 69 70 70 70 70 70 70 70 71 73 72 71 70 69 68 66 69 69 67 66 67 69 68 69 67 64 64 65 64 63 62 62 63 62
64 61 59 60 60 50 56 56 58 61 59 63 65 65 65 67 68 69 71 72 71 70 70 70 71 71 69 68 66 63 62 63 65 65 64 66 66 67 67 66 63 62 61 60 60 59 58 58 57
65 59 52 47 48 49 56 54 55 59 61 63 62 64 65 67 68 69 69 70 69 69 69 70 70 69 69 67 67 66 65 64 63 63 63 61 62 63 62 61 60 60 58 57 55 52 50 47 45
58 57 48 38 44 50 53 51 55 61 64 64 64 64 65 65 66 67 68 68 69 67 68 68 68 68 68 67 66 66 65 65 64 62 61 60 60 60 60 58 58 57 56 54 52 51 45 42 41
57 54 57 46 44 44 55 54 59 61 60 61 62 64 63 64 65 67 69 68 68 68 67 66 67 68 68 66 65 64 63 61 60 60 59 59 58 59 57 55 55 54 52 52 52 48 47 46 46
60 60 50 52 37 37 52 50 55 54 58 59 60 61 62 64 65 67 67 66 67 68 68 66 66 66 66 65 64 62 61 61 60 58 57 56 57 56 53 51 50 48 46 46 47 46 46 46 47
57 55 54 54 48 40 38 50 60 59 61 58 60 60 61 63 64 64 65 66 66 66 66 66 64 64 64 64 62 60 59 58 58 57 56 55 54 50 48 46 44 42 42 43 45 45 46 46 47
58 54 54 46 42 45 43 46 62 62 60 59 59 59 62 63 64 65 65 65 66 65 64 63 62 61 61 61 60 59 58 57 56 54 54 54 51 48 44 42 43 46 48 47 47 48 48 47 48

GFSSGP_sfc_temp_027.txt.gz
Temp
78 88 97 93 79 82 73 75 83 78 79 85 86 84 81 82 75 65 91 91 91 90 87 84 74 74 75 75 76 76 77 77 77 76 76 76 76 75 75 75 75 76 77 78 78 77 77 76 75
96 95 94 90 76 72 73 79 78 81 84 86 86 85 83 77 84 84 86 90 91 91 91 84 72 73 74 74 74 75 76 76 76 76 76 76 75 75 75 74 74 75 76 76 77 76 74 73 72
88 95 87 83 80 74 71 80 80 82 84 85 82 88 83 78 86 87 90 90 91 90 88 79 72 73 73 73 74 74 74 74 74 75 75 75 75 75 74 74 73 74 75 75 76 74 72 71 71
92 91 88 78 74 78 79 81 83 82 84 86 86 79 83 90 87 89 91 92 89 89 86 74 72 72 73 74 73 73 73 73 73 73 74 74 74 74 74 74 74 73 74 74 74 72 71 70 70
93 90 79 76 74 79 83 84 84 82 83 83 85 78 78 85 90 90 90 91 89 89 86 81 71 72 73 74 73 73 72 72 72 73 73 73 73 73 72 73 72 72 72 72 72 71 70 70 70
85 89 75 69 72 78 82 84 83 83 84 83 82 81 78 87 87 87 89 90 91 89 88 84 73 72 72 72 72 71 71 71 71 72 72 72 71 71 71 71 71 71 70 70 70 69 69 68 68
82 82 75 73 71 74 78 84 82 82 81 81 86 78 80 84 87 89 90 92 91 91 89 88 85 76 72 70 70 70 70 70 70 70 70 70 70 70 70 70 70 70 70 69 68 68 67 67 67
89 85 74 75 72 71 80 82 85 82 80 88 88 78 74 83 87 88 90 89 90 90 91 90 89 88 85 81 70 70 70 70 70 69 69 69 69 69 70 69 69 69 69 68 68 67 66 66 66
92 77 72 73 74 74 82 79 84 87 83 83 84 85 87 87 87 86 86 87 88 89 88 89 90 87 86 87 78 70 69 70 69 70 69 71 82 82 77 68 68 68 68 67 67 66 66 66 66
84 79 75 80 81 79 81 82 81 81 80 81 82 86 88 87 85 84 84 84 85 85 87 88 86 85 86 90 86 85 85 86 85 84 83 86 82 81 79 73 68 68 68 67 67 66 66 66 80
84 76 79 80 83 85 82 81 84 81 78 82 81 83 86 85 85 84 86 88 87 88 89 89 85 85 85 86 88 89 89 88 86 83 83 83 82 83 82 81 77 75 68 79 71 75 77 79 78
77 81 82 82 82 81 80 84 80 83 83 87 88 88 87 84 84 85 86 88 88 88 89 88 86 84 84 88 89 88 88 87 86 86 82 81 82 81 80 81 81 80 82 79 79 79 78 76 76
78 79 82 83 81 82 81 79 80 81 87 88 88 88 86 86 87 88 90 90 90 88 89 88 87 84 85 83 86 85 84 86 84 84 83 82 80 79 79 79 79 80 80 80 79 79 78 77 76
82 81 80 82 80 80 77 79 81 83 87 86 86 86 88 88 88 88 88 88 88 89 88 89 87 85 85 84 83 83 84 85 84 85 83 80 79 78 78 78 79 79 80 80 78 77 77 76 77
82 75 78 79 81 78 82 76 77 84 85 84 84 86 88 88 90 88 88 88 89 89 90 88 86 86 83 84 84 85 86 83 84 84 82 80 79 78 77 78 77 79 79 77 77 77 77 76 77
77 78 71 77 79 79 80 71 80 84 82 82 85 85 86 88 88 90 90 90 91 91 89 89 88 86 84 84 85 86 86 83 83 83 83 80 78 78 77 77 77 78 77 77 76 76 75 75 75
75 69 69 70 78 77 77 73 80 82 81 81 84 85 85 86 88 90 90 89 89 89 88 87 87 85 84 84 84 83 81 82 84 84 83 81 79 78 76 76 76 76 76 75 75 75 75 73 74
68 68 68 69 74 75 74 74 77 80 80 80 82 83 84 84 87 88 86 87 88 86 84 84 85 84 83 83 83 83 83 83 84 83 82 79 78 77 75 75 75 75 75 74 75 73 74 73 73
72 69 68 72 74 71 71 72 74 77 80 79 80 80 81 81 83 82 81 82 83 81 82 82 82 80 81 82 80 80 79 80 80 81 79 77 77 75 74 74 74 74 72 72 72 72 70 70 72
70 67 67 70 72 70 71 70 73 75 75 78 78 78 78 78 78 78 78 78 77 77 79 79 79 78 79 81 78 77 76 78 78 79 77 77 75 73 72 71 71 71 70 69 69 69 68 69 71
68 65 64 64 70 72 70 67 68 73 76 77 78 78 78 77 76 76 75 75 75 75 76 77 77 77 75 76 80 78 78 78 77 77 76 75 73 72 71 70 69 68 69 68 68 68 66 65 68
64 68 66 65 64 61 71 59 66 70 70 72 73 74 75 76 76 76 74 74 73 73 75 77 76 76 75 74 75 72 72 71 73 72 72 72 72 71 71 70 69 67 66 65 66 68 66 65 62
65 68 66 65 64 65 66 62 64 70 66 67 69 71 72 74 74 74 74 74 74 73 73 74 76 75 74 73 71 70 69 70 71 71 69 68 70 70 70 69 67 65 64 64 63 62 62 63 61
70 67 67 66 65 53 64 62 61 66 67 66 68 69 71 72 73 74 75 75 75 74 73 74 74 75 74 73 71 69 67 66 67 67 66 67 66 67 67 66 64 63 62 62 61 58 56 54 54
70 64 53 50 51 50 63 59 61 65 67 68 66 67 70 72 72 72 72 73 72 72 72 73 74 73 74 72 70 69 68 66 66 65 64 62 62 63 63 63 61 62 60 56 55 54 52 51 48
63 62 51 41 46 52 61 54 60 68 69 69 69 69 70 70 71 71 72 72 73 72 73 72 71 71 72 71 69 69 68 67 65 64 62 61 61 60 61 61 57 54 50 50 50 47 48 47 42
62 58 63 53 50 46 58 61 64 67 66 66 67 68 68 69 69 71 72 72 71 71 71 70 69 69 69 69 68 66 65 64 63 62 61 60 59 60 58 52 47 46 47 47 45 45 45 45 48
64 66 53 56 38 40 55 56 59 58 62 65 66 66 67 68 69 70 71 70 70 70 71 70 69 68 68 68 65 65 64 64 63 61 59 58 58 54 52 47 47 47 45 45 47 44 45 43 43
62 60 58 59 53 42 41 52 65 64 66 66 66 66 68 68 69 70 70 70 70 70 70 69 67 66 65 65 64 63 63 63 62 59 59 57 54 52 51 50 48 47 48 49 49 49 48 47 47
64 60 59 48 46 50 46 47 67 67 67 66 66 67 67 68 69 67 67 67 66 67 68 66 65 65 64 63 62 61 61 61 59 57 52 54 53 53 52 50 50 50 51 51 50 49 49 48 48